"Datum/tijd (MEZT)";"Astronomisch 1minuut standen";"meting 1minuut standen";"2-uur lopend gemiddelde opzet";"seiche"
2024-04-11 10:00;-88;-102;-15.983333333333;1.9833333333333
2024-04-11 10:01;-88;-104;-15.83606557377;-0.16393442622951
2024-04-11 10:02;-88;-104;-15.741935483871;-0.25806451612903
2024-04-11 10:03;-88;-104;-15.666666666667;-0.33333333333333
2024-04-11 10:04;-88;-104;-15.59375;-0.40625
2024-04-11 10:05;-88;-104;-15.523076923077;-0.47692307692308
2024-04-11 10:06;-88;-102;-15.439393939394;1.4393939393939
2024-04-11 10:07;-88;-101;-15.328358208955;2.3283582089552
2024-04-11 10:08;-88;-101;-15.176470588235;2.1764705882353
2024-04-11 10:09;-88;-102;-15.028985507246;1.0289855072464
2024-04-11 10:10;-88;-103;-14.9;-0.1
2024-04-11 10:11;-88;-105;-14.774647887324;-2.2253521126761
2024-04-11 10:12;-87;-106;-14.638888888889;-4.3611111111111
2024-04-11 10:13;-87;-104;-14.534246575342;-2.4657534246575
2024-04-11 10:14;-87;-104;-14.445945945946;-2.5540540540541
2024-04-11 10:15;-87;-105;-14.346666666667;-3.6533333333333
2024-04-11 10:16;-87;-104;-14.236842105263;-2.7631578947368
2024-04-11 10:17;-86;-103;-14.142857142857;-2.8571428571429
2024-04-11 10:18;-86;-104;-14.038461538462;-3.9615384615385
2024-04-11 10:19;-86;-105;-13.911392405063;-5.0886075949367
2024-04-11 10:20;-86;-105;-13.775;-5.225
2024-04-11 10:21;-85;-104;-13.62962962963;-5.3703703703704
2024-04-11 10:22;-85;-104;-13.5;-5.5
2024-04-11 10:23;-85;-104;-13.349397590361;-5.6506024096386
2024-04-11 10:24;-84;-103;-13.214285714286;-5.7857142857143
2024-04-11 10:25;-84;-101;-13.105882352941;-3.8941176470588
2024-04-11 10:26;-84;-100;-12.988372093023;-3.0116279069767
2024-04-11 10:27;-83;-99;-12.83908045977;-3.1609195402299
2024-04-11 10:28;-83;-98;-12.693181818182;-2.3068181818182
2024-04-11 10:29;-82;-99;-12.595505617978;-4.4044943820225
2024-04-11 10:30;-82;-101;-12.522222222222;-6.4777777777778
2024-04-11 10:31;-82;-101;-12.417582417582;-6.5824175824176
2024-04-11 10:32;-81;-102;-12.326086956522;-8.6739130434783
2024-04-11 10:33;-81;-103;-12.247311827957;-9.752688172043
2024-04-11 10:34;-80;-101;-12.159574468085;-8.8404255319149
2024-04-11 10:35;-80;-98;-12.052631578947;-5.9473684210526
2024-04-11 10:36;-79;-96;-11.9375;-5.0625
2024-04-11 10:37;-79;-96;-11.824742268041;-5.1752577319588
2024-04-11 10:38;-78;-96;-11.714285714286;-6.2857142857143
2024-04-11 10:39;-78;-97;-11.585858585859;-7.4141414141414
2024-04-11 10:40;-77;-98;-11.47;-9.53
2024-04-11 10:41;-77;-97;-11.366336633663;-8.6336633663366
2024-04-11 10:42;-77;-97;-11.274509803922;-8.7254901960784
2024-04-11 10:43;-76;-94;-11.194174757282;-6.8058252427184
2024-04-11 10:44;-76;-91;-11.134615384615;-3.8653846153846
2024-04-11 10:45;-75;-88;-11.114285714286;-1.8857142857143
2024-04-11 10:46;-75;-86;-11.075471698113;0.075471698113208
2024-04-11 10:47;-74;-84;-11;1
2024-04-11 10:48;-74;-84;-10.925925925926;0.92592592592593
2024-04-11 10:49;-73;-85;-10.853211009174;-1.1467889908257
2024-04-11 10:50;-73;-85;-10.781818181818;-1.2181818181818
2024-04-11 10:51;-72;-86;-10.702702702703;-3.2972972972973
2024-04-11 10:52;-72;-87;-10.633928571429;-4.3660714285714
2024-04-11 10:53;-71;-88;-10.592920353982;-6.4070796460177
2024-04-11 10:54;-71;-86;-10.543859649123;-4.4561403508772
2024-04-11 10:55;-71;-83;-10.513043478261;-1.4869565217391
2024-04-11 10:56;-70;-80;-10.491379310345;0.49137931034483
2024-04-11 10:57;-70;-79;-10.478632478632;1.4786324786325
2024-04-11 10:58;-69;-78;-10.449152542373;1.4491525423729
2024-04-11 10:59;-69;-76;-10.403361344538;3.4033613445378
2024-04-11 11:00;-69;-76;-10.375;3.375
2024-04-11 11:01;-68;-78;-10.325;0.325
2024-04-11 11:02;-68;-79;-10.241666666667;-0.75833333333333
2024-04-11 11:03;-68;-79;-10.158333333333;-0.84166666666667
2024-04-11 11:04;-67;-78;-10.1;-0.9
2024-04-11 11:05;-67;-77;-10.066666666667;0.066666666666666
2024-04-11 11:06;-67;-75;-10;2
2024-04-11 11:07;-66;-71;-9.9416666666667;4.9416666666667
2024-04-11 11:08;-66;-71;-9.9083333333333;4.9083333333333
2024-04-11 11:09;-66;-72;-9.8666666666667;3.8666666666667
2024-04-11 11:10;-65;-71;-9.7916666666667;3.7916666666667
2024-04-11 11:11;-65;-70;-9.6916666666667;4.6916666666667
2024-04-11 11:12;-65;-72;-9.5833333333333;2.5833333333333
2024-04-11 11:13;-65;-73;-9.475;1.475
2024-04-11 11:14;-65;-72;-9.3666666666667;2.3666666666667
2024-04-11 11:15;-64;-70;-9.2666666666667;3.2666666666667
2024-04-11 11:16;-64;-71;-9.1666666666667;2.1666666666667
2024-04-11 11:17;-64;-70;-9.075;3.075
2024-04-11 11:18;-64;-68;-8.975;4.975
2024-04-11 11:19;-64;-67;-8.8583333333333;5.8583333333333
2024-04-11 11:20;-64;-66;-8.7583333333333;6.7583333333333
2024-04-11 11:21;-64;-67;-8.6583333333333;5.6583333333333
2024-04-11 11:22;-64;-65;-8.5333333333333;7.5333333333333
2024-04-11 11:23;-63;-65;-8.4416666666667;6.4416666666667
2024-04-11 11:24;-63;-67;-8.3583333333333;4.3583333333333
2024-04-11 11:25;-63;-66;-8.2583333333333;5.2583333333333
2024-04-11 11:26;-63;-63;-8.1666666666667;8.1666666666667
2024-04-11 11:27;-63;-63;-8.0916666666667;8.0916666666667
2024-04-11 11:28;-63;-67;-8.0333333333333;4.0333333333333
2024-04-11 11:29;-63;-69;-7.9666666666667;1.9666666666667
2024-04-11 11:30;-63;-66;-7.8666666666667;4.8666666666667
2024-04-11 11:31;-63;-67;-7.75;3.75
2024-04-11 11:32;-64;-69;-7.6333333333333;2.6333333333333
2024-04-11 11:33;-64;-68;-7.475;3.475
2024-04-11 11:34;-64;-66;-7.3083333333333;5.3083333333333
2024-04-11 11:35;-64;-65;-7.1583333333333;6.1583333333333
2024-04-11 11:36;-64;-65;-7.0416666666667;6.0416666666667
2024-04-11 11:37;-64;-65;-6.9333333333333;5.9333333333333
2024-04-11 11:38;-64;-63;-6.85;7.85
2024-04-11 11:39;-64;-64;-6.75;6.75
2024-04-11 11:40;-64;-65;-6.6333333333333;5.6333333333333
2024-04-11 11:41;-65;-67;-6.5333333333333;4.5333333333333
2024-04-11 11:42;-65;-68;-6.4416666666667;3.4416666666667
2024-04-11 11:43;-65;-70;-6.325;1.325
2024-04-11 11:44;-65;-74;-6.2166666666667;-2.7833333333333
2024-04-11 11:45;-65;-72;-6.1416666666667;-0.85833333333333
2024-04-11 11:46;-66;-69;-6.0833333333333;3.0833333333333
2024-04-11 11:47;-66;-69;-6.025;3.025
2024-04-11 11:48;-66;-69;-5.9583333333333;2.9583333333333
2024-04-11 11:49;-66;-69;-5.9;2.9
2024-04-11 11:50;-66;-68;-5.8333333333333;3.8333333333333
2024-04-11 11:51;-67;-70;-5.7583333333333;2.7583333333333
2024-04-11 11:52;-67;-73;-5.6416666666667;-0.35833333333333
2024-04-11 11:53;-67;-72;-5.5416666666667;0.54166666666667
2024-04-11 11:54;-67;-74;-5.4416666666667;-1.5583333333333
2024-04-11 11:55;-68;-76;-5.3416666666667;-2.6583333333333
2024-04-11 11:56;-68;-77;-5.275;-3.725
2024-04-11 11:57;-68;-75;-5.2166666666667;-1.7833333333333
2024-04-11 11:58;-69;-74;-5.1583333333333;0.15833333333333
2024-04-11 11:59;-69;-76;-5.1;-1.9
2024-04-11 12:00;-69;-77;-5.0666666666667;-2.9333333333333
2024-04-11 12:01;-69;-75;-5.0416666666667;-0.95833333333333
2024-04-11 12:02;-70;-76;-5;-1
2024-04-11 12:03;-70;-79;-4.9583333333333;-4.0416666666667
2024-04-11 12:04;-70;-82;-4.925;-7.075
2024-04-11 12:05;-71;-79;-4.9;-3.1
2024-04-11 12:06;-71;-78;-4.8833333333333;-2.1166666666667
2024-04-11 12:07;-71;-80;-4.8833333333333;-4.1166666666667
2024-04-11 12:08;-72;-80;-4.9;-3.1
2024-04-11 12:09;-72;-77;-4.925;-0.075
2024-04-11 12:10;-72;-75;-4.925;1.925
2024-04-11 12:11;-73;-77;-4.9166666666667;0.91666666666667
2024-04-11 12:12;-73;-79;-4.9083333333333;-1.0916666666667
2024-04-11 12:13;-73;-77;-4.875;0.875
2024-04-11 12:14;-73;-78;-4.8333333333333;-0.16666666666667
2024-04-11 12:15;-74;-80;-4.8;-1.2
2024-04-11 12:16;-74;-80;-4.7666666666667;-1.2333333333333
2024-04-11 12:17;-74;-79;-4.7333333333333;-0.26666666666667
2024-04-11 12:18;-75;-79;-4.725;0.725
2024-04-11 12:19;-75;-82;-4.7416666666667;-2.2583333333333
2024-04-11 12:20;-75;-82;-4.7666666666667;-2.2333333333333
2024-04-11 12:21;-76;-80;-4.825;0.825
2024-04-11 12:22;-76;-84;-4.8916666666667;-3.1083333333333
2024-04-11 12:23;-76;-85;-4.9666666666667;-4.0333333333333
2024-04-11 12:24;-76;-83;-5.0083333333333;-1.9916666666667
2024-04-11 12:25;-77;-83;-5.0416666666667;-0.95833333333333
2024-04-11 12:26;-77;-84;-5.0916666666667;-1.9083333333333
2024-04-11 12:27;-77;-86;-5.1583333333333;-3.8416666666667
2024-04-11 12:28;-77;-84;-5.1916666666667;-1.8083333333333
2024-04-11 12:29;-78;-83;-5.2083333333333;0.20833333333333
2024-04-11 12:30;-78;-83;-5.225;0.225
2024-04-11 12:31;-78;-83;-5.25;0.25
2024-04-11 12:32;-79;-81;-5.2416666666667;3.2416666666667
2024-04-11 12:33;-79;-81;-5.25;3.25
2024-04-11 12:34;-79;-82;-5.2833333333333;2.2833333333333
2024-04-11 12:35;-79;-83;-5.3083333333333;1.3083333333333
2024-04-11 12:36;-80;-84;-5.3333333333333;1.3333333333333
2024-04-11 12:37;-80;-87;-5.375;-1.625
2024-04-11 12:38;-80;-86;-5.4083333333333;-0.59166666666667
2024-04-11 12:39;-80;-85;-5.425;0.425
2024-04-11 12:40;-80;-89;-5.4416666666667;-3.5583333333333
2024-04-11 12:41;-81;-90;-5.4916666666667;-3.5083333333333
2024-04-11 12:42;-81;-87;-5.5416666666667;-0.45833333333333
2024-04-11 12:43;-81;-86;-5.575;0.575
2024-04-11 12:44;-81;-87;-5.6;-0.4
2024-04-11 12:45;-82;-88;-5.6166666666667;-0.38333333333333
2024-04-11 12:46;-82;-86;-5.65;1.65
2024-04-11 12:47;-82;-84;-5.7;3.7
2024-04-11 12:48;-82;-85;-5.7416666666667;2.7416666666667
2024-04-11 12:49;-82;-86;-5.8;1.8
2024-04-11 12:50;-83;-86;-5.8583333333333;2.8583333333333
2024-04-11 12:51;-83;-83;-5.9;5.9
2024-04-11 12:52;-83;-86;-5.9333333333333;2.9333333333333
2024-04-11 12:53;-83;-88;-5.9416666666667;0.94166666666667
2024-04-11 12:54;-83;-86;-5.95;2.95
2024-04-11 12:55;-83;-87;-5.9333333333333;1.9333333333333
2024-04-11 12:56;-84;-87;-5.9;2.9
2024-04-11 12:57;-84;-86;-5.8666666666667;3.8666666666667
2024-04-11 12:58;-84;-86;-5.85;3.85
2024-04-11 12:59;-84;-87;-5.8416666666667;2.8416666666667
2024-04-11 13:00;-84;-88;-5.8083333333333;1.8083333333333
2024-04-11 13:01;-84;-89;-5.7833333333333;0.78333333333333
2024-04-11 13:02;-84;-90;-5.7916666666667;-0.20833333333333
2024-04-11 13:03;-85;-92;-5.8;-1.2
2024-04-11 13:04;-85;-93;-5.775;-2.225
2024-04-11 13:05;-85;-93;-5.7333333333333;-2.2666666666667
2024-04-11 13:06;-85;-93;-5.7416666666667;-2.2583333333333
2024-04-11 13:07;-85;-92;-5.7333333333333;-1.2666666666667
2024-04-11 13:08;-85;-93;-5.7;-2.3
2024-04-11 13:09;-85;-91;-5.6833333333333;-0.31666666666667
2024-04-11 13:10;-85;-90;-5.6916666666667;0.69166666666667
2024-04-11 13:11;-86;-90;-5.7;1.7
2024-04-11 13:12;-86;-89;-5.7;2.7
2024-04-11 13:13;-86;-89;-5.6916666666667;2.6916666666667
2024-04-11 13:14;-86;-89;-5.6916666666667;2.6916666666667
2024-04-11 13:15;-86;-88;-5.675;3.675
2024-04-11 13:16;-86;-89;-5.6333333333333;2.6333333333333
2024-04-11 13:17;-86;-91;-5.6;0.6
2024-04-11 13:18;-86;-92;-5.575;-0.425
2024-04-11 13:19;-86;-92;-5.5333333333333;-0.46666666666667
2024-04-11 13:20;-86;-95;-5.475;-3.525
2024-04-11 13:21;-86;-97;-5.4333333333333;-5.5666666666667
2024-04-11 13:22;-86;-96;-5.4166666666667;-4.5833333333333
2024-04-11 13:23;-87;-94;-5.3583333333333;-1.6416666666667
2024-04-11 13:24;-87;-95;-5.2916666666667;-2.7083333333333
2024-04-11 13:25;-87;-96;-5.25;-3.75
2024-04-11 13:26;-87;-95;-5.2083333333333;-2.7916666666667
2024-04-11 13:27;-87;-91;-5.1583333333333;1.1583333333333
2024-04-11 13:28;-87;-93;-5.0916666666667;-0.90833333333333
2024-04-11 13:29;-87;-95;-5.0333333333333;-2.9666666666667
2024-04-11 13:30;-87;-93;-4.9916666666667;-1.0083333333333
2024-04-11 13:31;-87;-90;-4.9416666666667;1.9416666666667
2024-04-11 13:32;-87;-93;-4.8916666666667;-1.1083333333333
2024-04-11 13:33;-87;-95;-4.875;-3.125
2024-04-11 13:34;-87;-92;-4.8583333333333;-0.14166666666667
2024-04-11 13:35;-87;-91;-4.8166666666667;0.81666666666667
2024-04-11 13:36;-87;-93;-4.7583333333333;-1.2416666666667
2024-04-11 13:37;-87;-92;-4.7;-0.3
2024-04-11 13:38;-87;-88;-4.6166666666667;3.6166666666667
2024-04-11 13:39;-87;-89;-4.525;2.525
2024-04-11 13:40;-87;-94;-4.425;-2.575
2024-04-11 13:41;-87;-95;-4.2916666666667;-3.7083333333333
2024-04-11 13:42;-87;-94;-4.1666666666667;-2.8333333333333
2024-04-11 13:43;-87;-95;-4.0583333333333;-3.9416666666667
2024-04-11 13:44;-87;-98;-3.9416666666667;-7.0583333333333
2024-04-11 13:45;-87;-98;-3.825;-7.175
2024-04-11 13:46;-87;-96;-3.725;-5.275
2024-04-11 13:47;-87;-95;-3.6333333333333;-4.3666666666667
2024-04-11 13:48;-86;-96;-3.55;-6.45
2024-04-11 13:49;-86;-96;-3.4666666666667;-6.5333333333333
2024-04-11 13:50;-86;-93;-3.375;-3.625
2024-04-11 13:51;-86;-93;-3.2833333333333;-3.7166666666667
2024-04-11 13:52;-86;-93;-3.2;-3.8
2024-04-11 13:53;-86;-92;-3.0916666666667;-2.9083333333333
2024-04-11 13:54;-86;-91;-2.9666666666667;-2.0333333333333
2024-04-11 13:55;-86;-90;-2.85;-1.15
2024-04-11 13:56;-86;-91;-2.7166666666667;-2.2833333333333
2024-04-11 13:57;-86;-91;-2.6;-2.4
2024-04-11 13:58;-86;-90;-2.4916666666667;-1.5083333333333
2024-04-11 13:59;-86;-89;-2.3583333333333;-0.64166666666667
2024-04-11 14:00;-85;-90;-2.2166666666667;-2.7833333333333
2024-04-11 14:01;-85;-92;-2.0666666666667;-4.9333333333333
2024-04-11 14:02;-85;-92;-1.9083333333333;-5.0916666666667
2024-04-11 14:03;-85;-91;-1.725;-4.275
2024-04-11 14:04;-85;-92;-1.5416666666667;-5.4583333333333
2024-04-11 14:05;-85;-94;-1.35;-7.65
2024-04-11 14:06;-85;-91;-1.1583333333333;-4.8416666666667
2024-04-11 14:07;-84;-89;-0.96666666666667;-4.0333333333333
2024-04-11 14:08;-84;-90;-0.78333333333333;-5.2166666666667
2024-04-11 14:09;-84;-90;-0.59166666666667;-5.4083333333333
2024-04-11 14:10;-84;-88;-0.425;-3.575
2024-04-11 14:11;-84;-88;-0.26666666666667;-3.7333333333333
2024-04-11 14:12;-84;-89;-0.1;-4.9
2024-04-11 14:13;-84;-88;0.05;-4.05
2024-04-11 14:14;-83;-86;0.19166666666667;-3.1916666666667
2024-04-11 14:15;-83;-84;0.34166666666667;-1.3416666666667
2024-04-11 14:16;-83;-85;0.48333333333333;-2.4833333333333
2024-04-11 14:17;-83;-85;0.64166666666667;-2.6416666666667
2024-04-11 14:18;-83;-82;0.825;0.175
2024-04-11 14:19;-82;-82;1.0166666666667;-1.0166666666667
2024-04-11 14:20;-82;-84;1.2166666666667;-3.2166666666667
2024-04-11 14:21;-82;-84;1.4416666666667;-3.4416666666667
2024-04-11 14:22;-82;-83;1.675;-2.675
2024-04-11 14:23;-82;-83;1.9083333333333;-2.9083333333333
2024-04-11 14:24;-81;-83;2.1166666666667;-4.1166666666667
2024-04-11 14:25;-81;-82;2.3416666666667;-3.3416666666667
2024-04-11 14:26;-81;-82;2.5666666666667;-3.5666666666667
2024-04-11 14:27;-81;-82;2.7916666666667;-3.7916666666667
2024-04-11 14:28;-81;-81;2.9833333333333;-2.9833333333333
2024-04-11 14:29;-80;-80;3.1833333333333;-3.1833333333333
2024-04-11 14:30;-80;-79;3.3916666666667;-2.3916666666667
2024-04-11 14:31;-80;-79;3.5916666666667;-2.5916666666667
2024-04-11 14:32;-80;-80;3.7583333333333;-3.7583333333333
2024-04-11 14:33;-79;-79;3.9416666666667;-3.9416666666667
2024-04-11 14:34;-79;-77;4.1416666666667;-2.1416666666667
2024-04-11 14:35;-79;-76;4.325;-1.325
2024-04-11 14:36;-79;-76;4.4916666666667;-1.4916666666667
2024-04-11 14:37;-78;-75;4.675;-1.675
2024-04-11 14:38;-78;-73;4.8583333333333;0.14166666666667
2024-04-11 14:39;-78;-71;5.025;1.975
2024-04-11 14:40;-78;-71;5.2;1.8
2024-04-11 14:41;-77;-71;5.4;0.6
2024-04-11 14:42;-77;-70;5.6166666666667;1.3833333333333
2024-04-11 14:43;-77;-68;5.8333333333333;3.1666666666667
2024-04-11 14:44;-77;-69;6.0416666666667;1.9583333333333
2024-04-11 14:45;-76;-70;6.2666666666667;-0.26666666666667
2024-04-11 14:46;-76;-69;6.4916666666667;0.50833333333333
2024-04-11 14:47;-76;-68;6.6916666666667;1.3083333333333
2024-04-11 14:48;-75;-68;6.8916666666667;0.10833333333333
2024-04-11 14:49;-75;-68;7.1;-0.1
2024-04-11 14:50;-75;-67;7.3166666666667;0.68333333333333
2024-04-11 14:51;-74;-64;7.5083333333333;2.4916666666667
2024-04-11 14:52;-74;-64;7.7083333333333;2.2916666666667
2024-04-11 14:53;-74;-64;7.9;2.1
2024-04-11 14:54;-73;-62;8.075;2.925
2024-04-11 14:55;-73;-61;8.2416666666667;3.7583333333333
2024-04-11 14:56;-72;-61;8.3833333333333;2.6166666666667
2024-04-11 14:57;-72;-61;8.5333333333333;2.4666666666667
2024-04-11 14:58;-72;-58;8.6916666666667;5.3083333333333
2024-04-11 14:59;-71;-57;8.8416666666667;5.1583333333333
2024-04-11 15:00;-71;-57;8.975;5.025
2024-04-11 15:01;-70;-56;9.1333333333333;4.8666666666667
2024-04-11 15:02;-70;-54;9.3166666666667;6.6833333333333
2024-04-11 15:03;-69;-54;9.4916666666667;5.5083333333333
2024-04-11 15:04;-69;-54;9.6666666666667;5.3333333333333
2024-04-11 15:05;-68;-53;9.8583333333333;5.1416666666667
2024-04-11 15:06;-68;-53;10.05;4.95
2024-04-11 15:07;-67;-52;10.208333333333;4.7916666666667
2024-04-11 15:08;-67;-52;10.366666666667;4.6333333333333
2024-04-11 15:09;-66;-52;10.541666666667;3.4583333333333
2024-04-11 15:10;-65;-51;10.708333333333;3.2916666666667
2024-04-11 15:11;-65;-49;10.841666666667;5.1583333333333
2024-04-11 15:12;-64;-49;11;4
2024-04-11 15:13;-63;-49;11.183333333333;2.8166666666667
2024-04-11 15:14;-63;-48;11.333333333333;3.6666666666667
2024-04-11 15:15;-62;-47;11.475;3.525
2024-04-11 15:16;-61;-45;11.616666666667;4.3833333333333
2024-04-11 15:17;-61;-44;11.766666666667;5.2333333333333
2024-04-11 15:18;-60;-43;11.9;5.1
2024-04-11 15:19;-59;-41;12.008333333333;5.9916666666667
2024-04-11 15:20;-58;-40;12.15;5.85
2024-04-11 15:21;-57;-40;12.316666666667;4.6833333333333
2024-04-11 15:22;-56;-38;12.466666666667;5.5333333333333
2024-04-11 15:23;-55;-37;12.608333333333;5.3916666666667
2024-04-11 15:24;-55;-36;12.775;6.225
2024-04-11 15:25;-54;-36;12.933333333333;5.0666666666667
2024-04-11 15:26;-53;-34;13.083333333333;5.9166666666667
2024-04-11 15:27;-52;-33;13.241666666667;5.7583333333333
2024-04-11 15:28;-51;-33;13.391666666667;4.6083333333333
2024-04-11 15:29;-49;-32;13.541666666667;3.4583333333333
2024-04-11 15:30;-48;-30;13.691666666667;4.3083333333333
2024-04-11 15:31;-47;-30;13.841666666667;3.1583333333333
2024-04-11 15:32;-46;-30;14.008333333333;1.9916666666667
2024-04-11 15:33;-45;-29;14.166666666667;1.8333333333333
2024-04-11 15:34;-44;-27;14.333333333333;2.6666666666667
2024-04-11 15:35;-42;-26;14.5;1.5
2024-04-11 15:36;-41;-25;14.658333333333;1.3416666666667
2024-04-11 15:37;-40;-23;14.791666666667;2.2083333333333
2024-04-11 15:38;-38;-19;14.95;4.05
2024-04-11 15:39;-37;-18;15.108333333333;3.8916666666667
2024-04-11 15:40;-35;-18;15.25;1.75
2024-04-11 15:41;-34;-16;15.391666666667;2.6083333333333
2024-04-11 15:42;-33;-14;15.55;3.45
2024-04-11 15:43;-31;-14;15.708333333333;1.2916666666667
2024-04-11 15:44;-29;-13;15.833333333333;0.16666666666667
2024-04-11 15:45;-28;-12;15.958333333333;0.041666666666666
2024-04-11 15:46;-26;-11;16.116666666667;-1.1166666666667
2024-04-11 15:47;-25;-9;16.275;-0.275
2024-04-11 15:48;-23;-8;16.416666666667;-1.4166666666667
2024-04-11 15:49;-21;-5;16.583333333333;-0.58333333333333
2024-04-11 15:50;-19;-3;16.775;-0.775
2024-04-11 15:51;-18;-1;16.958333333333;0.041666666666668
2024-04-11 15:52;-16;0;17.116666666667;-1.1166666666667
2024-04-11 15:53;-14;1;17.283333333333;-2.2833333333333
2024-04-11 15:54;-12;3;17.458333333333;-2.4583333333333
2024-04-11 15:55;-10;3;17.625;-4.625
2024-04-11 15:56;-8;5;17.783333333333;-4.7833333333333
2024-04-11 15:57;-6;8;17.958333333333;-3.9583333333333
2024-04-11 15:58;-4;10;18.141666666667;-4.1416666666667
2024-04-11 15:59;-2;11;18.291666666667;-5.2916666666667
2024-04-11 16:00;0;14;18.433333333333;-4.4333333333333
2024-04-11 16:01;2;17;18.591666666667;-3.5916666666667
2024-04-11 16:02;4;18;18.75;-4.75
2024-04-11 16:03;6;21;18.883333333333;-3.8833333333333
2024-04-11 16:04;8;24;19.033333333333;-3.0333333333333
2024-04-11 16:05;11;25;19.2;-5.2
2024-04-11 16:06;13;26;19.358333333333;-6.3583333333333
2024-04-11 16:07;15;29;19.508333333333;-5.5083333333333
2024-04-11 16:08;17;32;19.666666666667;-4.6666666666667
2024-04-11 16:09;19;33;19.833333333333;-5.8333333333333
2024-04-11 16:10;22;34;20;-8
2024-04-11 16:11;24;39;20.166666666667;-5.1666666666667
2024-04-11 16:12;26;43;20.333333333333;-3.3333333333333
2024-04-11 16:13;29;43;20.508333333333;-6.5083333333333
2024-04-11 16:14;31;45;20.683333333333;-6.6833333333333
2024-04-11 16:15;33;49;20.841666666667;-4.8416666666667
2024-04-11 16:16;36;52;21.008333333333;-5.0083333333333
2024-04-11 16:17;38;52;21.158333333333;-7.1583333333333
2024-04-11 16:18;40;54;21.283333333333;-7.2833333333333
2024-04-11 16:19;43;60;21.425;-4.425
2024-04-11 16:20;45;63;21.55;-3.55
2024-04-11 16:21;48;64;21.675;-5.675
2024-04-11 16:22;50;66;21.816666666667;-5.8166666666667
2024-04-11 16:23;52;71;21.941666666667;-2.9416666666667
2024-04-11 16:24;55;72;22.066666666667;-5.0666666666667
2024-04-11 16:25;57;74;22.183333333333;-5.1833333333333
2024-04-11 16:26;59;77;22.3;-4.3
2024-04-11 16:27;62;79;22.408333333333;-5.4083333333333
2024-04-11 16:28;64;82;22.516666666667;-4.5166666666667
2024-04-11 16:29;67;85;22.633333333333;-4.6333333333333
2024-04-11 16:30;69;88;22.766666666667;-3.7666666666667
2024-04-11 16:31;71;92;22.883333333333;-1.8833333333333
2024-04-11 16:32;74;93;23;-4
2024-04-11 16:33;76;96;23.116666666667;-3.1166666666667
2024-04-11 16:34;78;100;23.225;-1.225
2024-04-11 16:35;80;102;23.316666666667;-1.3166666666667
2024-04-11 16:36;83;102;23.4;-4.4
2024-04-11 16:37;85;107;23.483333333333;-1.4833333333333
2024-04-11 16:38;87;111;23.558333333333;0.44166666666667
2024-04-11 16:39;89;113;23.616666666667;0.38333333333333
2024-04-11 16:40;91;115;23.675;0.325
2024-04-11 16:41;94;119;23.741666666667;1.2583333333333
2024-04-11 16:42;96;122;23.8;2.2
2024-04-11 16:43;98;122;23.841666666667;0.15833333333333
2024-04-11 16:44;100;123;23.9;-0.9
2024-04-11 16:45;102;127;23.958333333333;1.0416666666667
2024-04-11 16:46;104;130;24.016666666667;1.9833333333333
2024-04-11 16:47;106;131;24.083333333333;0.91666666666667
2024-04-11 16:48;108;135;24.133333333333;2.8666666666667
2024-04-11 16:49;109;139;24.191666666667;5.8083333333333
2024-04-11 16:50;111;141;24.233333333333;5.7666666666667
2024-04-11 16:51;113;142;24.266666666667;4.7333333333333
2024-04-11 16:52;115;145;24.291666666667;5.7083333333333
2024-04-11 16:53;116;147;24.325;6.675
2024-04-11 16:54;118;149;24.358333333333;6.6416666666667
2024-04-11 16:55;120;151;24.383333333333;6.6166666666667
2024-04-11 16:56;121;153;24.425;7.575
2024-04-11 16:57;123;156;24.466666666667;8.5333333333333
2024-04-11 16:58;124;156;24.5;7.5
2024-04-11 16:59;126;157;24.516666666667;6.4833333333333
2024-04-11 17:00;127;160;24.55;8.45
2024-04-11 17:01;128;161;24.583333333333;8.4166666666667
2024-04-11 17:02;130;162;24.6;7.4
2024-04-11 17:03;131;164;24.625;8.375
2024-04-11 17:04;132;167;24.641666666667;10.358333333333
2024-04-11 17:05;133;167;24.641666666667;9.3583333333333
2024-04-11 17:06;134;167;24.65;8.35
2024-04-11 17:07;135;169;24.666666666667;9.3333333333333
2024-04-11 17:08;136;171;24.683333333333;10.316666666667
2024-04-11 17:09;137;171;24.691666666667;9.3083333333333
2024-04-11 17:10;138;172;24.7;9.3
2024-04-11 17:11;139;175;24.733333333333;11.266666666667
2024-04-11 17:12;140;176;24.741666666667;11.258333333333
2024-04-11 17:13;140;175;24.733333333333;10.266666666667
2024-04-11 17:14;141;175;24.758333333333;9.2416666666667
2024-04-11 17:15;142;177;24.783333333333;10.216666666667
2024-04-11 17:16;142;176;24.791666666667;9.2083333333333
2024-04-11 17:17;143;175;24.8;7.2
2024-04-11 17:18;143;177;24.825;9.175
2024-04-11 17:19;144;177;24.841666666667;8.1583333333333
2024-04-11 17:20;144;177;24.841666666667;8.1583333333333
2024-04-11 17:21;144;178;24.833333333333;9.1666666666667
2024-04-11 17:22;145;178;24.833333333333;8.1666666666667
2024-04-11 17:23;145;178;24.833333333333;8.1666666666667
2024-04-11 17:24;145;178;24.808333333333;8.1916666666667
2024-04-11 17:25;145;177;24.8;7.2
2024-04-11 17:26;145;177;24.791666666667;7.2083333333333
2024-04-11 17:27;145;177;24.783333333333;7.2166666666667